Location: Feydey
(46.3431°N, 7.0106°E)
Time: 23:33:23
(UTC+00:00)

CZ-2C R/B - Pass Details

Date: 20 June 2021
Orbit: 640 x 704 km, 98.3° (Epoch: 23 July)

Event Time Altitude Azimuth Distance (km) Brightness Sun altitude
Rises 20:41:18 0° 12° (NNE) 3,103 7.7 -10.1°
Reaches altitude 10° 20:43:34 10° 11° (NNE) 2,182 6.9 -10.3°
Maximum altitude 20:48:21 78° 287° (WNW) 724 4.0 -10.8°
Drops below altitude 10° 20:53:06 10° 201° (SSW) 2,160 6.0 -11.3°
Sets 20:55:20 0° 200° (SSW) 3,068 6.8 -11.6°
